ヴァイサラ-オテルマ彗星

139P/Vaisala-Oterma (2017)

English version
Home page
Updated on July 22, 2020

---------------------------------------------------------------------

・ プロフィール

・ 写真集

・ 軌道要素

Epoch 2017 Nov. 23.0 TT = JDT 2458080.5                                         
T 2017 Dec. 10.82997 TT                                 Rudenko                 
q   3.4144105            (2000.0)            P               Q                  
n   0.10221918     Peri.  166.06756     +0.66537835     -0.74563726             
a   4.5301697      Node   242.20753     +0.68094846     +0.62600607             
e   0.2462952      Incl.    2.33292     +0.30590987     +0.22834508             
P   9.64                                                                        
From 529 observations 1939 Oct. 7-2019 Feb. 4, mean residual 0".7.              

・ 光度変化

        m1 = 11.0 + 5 logΔ + 10.0 log r

---------------------------------------------------------------------

軌道要素はM.P.E.C. 2020-H67に掲載されたものです。
光度グラフはComet for Windowsで作成したものです。

---------------------------------------------------------------------

Copyright(C) Seiichi Yoshida (comet@aerith.net). All rights reserved.